Location: Il Ritiro
(43.4167°N, 13.1333°E)
Time: 16:37:01
(UTC+00:00)

ATLAS 2AS CENTAUR R/B - Pass Details

Date: 05 July 2020
Orbit: 930 x 1282 km, 63.7° (Epoch: 19 July)

Event Time Altitude Azimuth Distance (km) Brightness Sun altitude
Rises 22:33:51 0° 322° (NW) 4,154 6.8 -23.3°
Reaches altitude 10° 22:36:44 10° 320° (NW) 3,143 5.9 -23.4°
Maximum altitude 22:44:10 68° 240° (WSW) 1,207 2.8 -23.6°
Enters shadow 22:46:18 46° 176° (S) 1,447 2.9 -23.6°
